Location: Croissy-Beaubourg
(48.8283°N, 2.6696°E)
Time: 00:30:24
(UTC+00:00)

USA 215 - Pass Details

Date: 27 May 2022
Orbit: 1099 x 1108 km, 123.0° (Epoch: 10 June)

Event Time Altitude Azimuth Distance (km) Brightness Sun altitude
Rises 01:18:18 0° 63° (ENE) 3,923 7.0 -17.0°
Reaches altitude 10° 01:20:51 10° 58° (ENE) 2,965 6.3 -16.8°
Maximum altitude 01:27:06 50° 346° (NNW) 1,382 4.1 -16.4°
Drops below altitude 10° 01:33:21 10° 274° (W) 2,967 5.3 -16.0°
Sets 01:35:55 0° 269° (W) 3,925 5.9 -15.8°
